User: anonymous   Login
Location: Banksville Park
(38.5557°N, 75.1182°W)
Time: 20:46:59
(UTC+00:00)
Language:

Cosmos 1697 Rocket - Orbit

View from above orbital plane
View from above orbital plane
View from above satellite
View from above satellite

Ground track
Ground track

The orbit data is extracted from the following two-line orbital elements,

1 16182U 85097B   20331.90324387 -.00000308 +00000-0 -13093-3 0  9994
2 16182 071.0021 239.6948 0009294 305.7133 122.1801 14.16256648814155
Epoch (UTC): 26 November 2020 21:40:40
Eccentricity: 0.0009294
inclination: 71.0021°
perigee height: 831 km
apogee height: 845 km
right ascension of ascending node: 239.6948°
argument of perigee: 305.7133°
revolutions per day: 14.16256648
mean anomaly at epoch: 122.1801°
orbit number at epoch: 81415

The dashed part of the orbit path shows where the satellite is in the earth's shadow,  

DLR